Temp
7 6 6 6 6 6 6 5 4 2 2 1 -0 -0 -0 -1 -1 -1 -1 -2 -2 -2 -2 -3 -3 -3 -3 -3 -3 -3 -3 -3 -4 -4 -4 -3 -3 -3 -2 -2 -1 1 1
5 5 5 5 5 4 3 3 2 2 1 0 -0 -1 -1 -2 -2 -2 -2 -2 -3 -3 -3 -4 -4 -4 -4 -4 -4 -4 -4 -4 -4 -5 -5 -4 -4 -4 -3 -3 -2 -1 -0
4 4 5 4 3 3 2 2 1 0 -0 -0 -1 -1 -2 -2 -2 -3 -3 -3 -4 -4 -4 -5 -5 -4 -5 -5 -5 -5 -5 -5 -5 -5 -5 -5 -5 -5 -4 -4 -3 -2 -2
3 4 3 2 1 1 0 0 -0 -1 -1 -1 -2 -2 -2 -2 -3 -3 -4 -4 -5 -5 -5 -5 -5 -5 -5 -5 -5 -6 -6 -6 -6 -6 -6 -7 -6 -6 -6 -5 -5 -4 -3
3 2 2 2 0 -1 -1 -1 -2 -2 -2 -2 -2 -2 -3 -3 -4 -4 -5 -5 -6 -6 -6 -6 -6 -7 -7 -7 -7 -7 -7 -7 -7 -7 -8 -8 -7 -7 -7 -6 -6 -5 -4
0 1 1 -1 -1 -1 -1 -3 -2 -1 -2 -2 -2 -3 -4 -4 -5 -5 -6 -6 -7 -7 -7 -7 -8 -8 -7 -7 -7 -7 -7 -8 -8 -9 -9 -8 -8 -8 -8 -7 -6 -6 -5
-0 -1 -1 -1 -1 -1 -2 -2 -2 -2 -2 -3 -3 -4 -4 -5 -6 -7 -7 -8 -8 -8 -8 -8 -8 -8 -8 -8 -7 -7 -7 -7 -7 -8 -9 -9 -8 -8 -8 -8 -7 -7 -6
-1 -1 -2 -2 -2 -2 -2 -2 -2 -3 -3 -4 -4 -5 -6 -6 -7 -8 -8 -8 -9 -9 -9 -8 -8 -8 -8 -8 -9 -8 -8 -7 -7 -7 -8 -8 -8 -8 -8 -8 -8 -7 -7
-0 -1 -1 -2 -2 -2 -2 -2 -3 -3 -4 -5 -5 -6 -7 -8 -8 -8 -9 -9 -9 -9 -9 -9 -9 -9 -8 -9 -9 -9 -9 -8 -7 -7 -8 -8 -8 -8 -8 -8 -8 -7 -7
-1 -2 -2 -3 -2 -2 -3 -4 -4 -5 -5 -6 -7 -8 -8 -8 -8 -9 -9 -10 -10 -9 -9 -8 -8 -8 -9 -9 -9 -9 -9 -8 -8 -8 -8 -8 -8 -8 -8 -8 -7 -7 -7
-2 -2 -2 -2 -3 -4 -4 -4 -5 -6 -6 -7 -8 -9 -9 -9 -9 -9 -9 -10 -9 -9 -9 -8 -8 -9 -9 -8 -8 -9 -9 -8 -8 -8 -8 -8 -8 -7 -7 -8 -7 -7 -7
-2 -2 -3 -3 -4 -4 -5 -6 -6 -7 -8 -9 -9 -9 -9 -9 -9 -9 -10 -9 -9 -9 -8 -9 -9 -9 -9 -9 -8 -8 -8 -8 -8 -8 -8 -8 -8 -7 -6 -7 -7 -7 -7
-2 -3 -3 -4 -4 -5 -6 -6 -7 -8 -9 -10 -10 -10 -10 -9 -9 -10 -9 -9 -9 -8 -9 -9 -10 -10 -10 -9 -9 -8 -8 -8 -8 -8 -7 -7 -7 -7 -7 -7 -7 -7 -7
-3 -3 -4 -4 -5 -6 -7 -8 -9 -9 -10 -10 -10 -10 -10 -10 -10 -10 -10 -9 -9 -9 -9 -10 -10 -10 -9 -9 -8 -7 -7 -7 -7 -7 -7 -7 -7 -8 -8 -7 -7 -7 -7
-4 -4 -5 -5 -6 -7 -8 -9 -9 -10 -10 -10 -11 -11 -11 -10 -10 -10 -10 -10 -9 -9 -9 -10 -10 -10 -9 -8 -8 -7 -7 -7 -7 -7 -7 -7 -8 -8 -8 -8 -7 -7 -7
-4 -5 -6 -6 -8 -9 -9 -9 -10 -10 -11 -11 -11 -11 -11 -11 -11 -10 -10 -10 -9 -9 -10 -10 -11 -11 -10 -9 -8 -8 -7 -7 -7 -7 -7 -7 -7 -7 -7 -7 -7 -7 -6
-5 -6 -8 -8 -9 -9 -10 -10 -11 -11 -11 -11 -11 -11 -11 -12 -11 -10 -10 -10 -10 -10 -10 -11 -11 -11 -11 -10 -9 -9 -8 -7 -7 -8 -7 -7 -7 -7 -6 -6 -6 -6 -6
-6 -7 -8 -8 -9 -10 -10 -11 -11 -11 -12 -12 -11 -12 -11 -12 -11 -11 -10 -10 -10 -10 -11 -11 -11 -11 -11 -11 -10 -10 -9 -8 -8 -7 -7 -7 -6 -6 -6 -5 -6 -6 -6
-7 -8 -9 -9 -9 -10 -10 -11 -11 -11 -12 -12 -12 -12 -12 -12 -12 -11 -11 -11 -11 -11 -11 -11 -11 -11 -11 -11 -10 -10 -10 -9 -9 -8 -7 -7 -7 -7 -7 -7 -7 -7 -6
-7 -8 -9 -10 -10 -10 -11 -11 -12 -12 -12 -12 -13 -13 -12 -12 -12 -12 -12 -12 -12 -11 -12 -11 -11 -11 -11 -11 -11 -10 -10 -10 -10 -9 -9 -8 -8 -7 -7 -7 -7 -8 -8
-8 -9 -10 -10 -10 -11 -11 -12 -12 -12 -13 -13 -13 -13 -13 -13 -13 -13 -13 -12 -12 -12 -12 -12 -12 -11 -11 -11 -11 -11 -11 -11 -11 -10 -10 -9 -9 -8 -8 -8 -8 -8 -8
-8 -9 -10 -10 -11 -11 -12 -12 -12 -13 -13 -13 -14 -14 -13 -13 -13 -13 -13 -13 -13 -13 -13 -12 -12 -12 -12 -11 -11 -11 -11 -11 -11 -11 -11 -10 -10 -10 -10 -9 -9 -9 -9
-8 -9 -9 -10 -11 -12 -12 -12 -13 -13 -13 -14 -14 -14 -14 -14 -14 -14 -14 -14 -13 -13 -13 -13 -12 -13 -12 -12 -12 -11 -11 -12 -11 -11 -11 -11 -11 -11 -11 -10 -10 -10 -10
-8 -9 -10 -10 -11 -12 -12 -13 -13 -13 -14 -14 -14 -15 -15 -15 -15 -15 -15 -14 -14 -14 -13 -13 -13 -13 -13 -12 -12 -12 -12 -12 -12 -11 -12 -11 -11 -11 -11 -11 -11 -11 -11
-9 -10 -11 -11 -11 -12 -12 -13 -13 -14 -14 -14 -15 -15 -15 -15 -15 -15 -15 -15 -14 -14 -13 -13 -13 -13 -13 -13 -12 -13 -13 -12 -12 -12 -12 -12 -12 -12 -12 -12 -12 -12 -12
-10 -10 -11 -11 -11 -12 -12 -13 -13 -14 -14 -14 -15 -15 -15 -15 -15 -15 -15 -14 -14 -14 -14 -14 -13 -13 -13 -12 -12 -12 -13 -13 -12 -13 -13 -12 -12 -12 -13 -13 -12 -12 -12
Height
1473 1469 1464 1460 1456 1454 1453 1451 1450 1450 1449 1450 1449 1451 1451 1451 1451 1450 1450 1449 1447 1445 1444 1442 1439 1439 1436 1435 1434 1431 1429 1428 1420 1420 1421 1421 1420 1419 1419 1420 1419 1419 1419
1467 1462 1458 1455 1452 1450 1449 1448 1449 1449 1448 1448 1447 1447 1447 1446 1446 1445 1443 1441 1439 1437 1435 1433 1430 1429 1426 1425 1423 1421 1419 1418 1414 1409 1411 1411 1411 1411 1411 1410 1411 1411 1410
1462 1458 1454 1451 1448 1447 1446 1445 1444 1444 1445 1445 1444 1443 1442 1441 1439 1438 1435 1433 1430 1428 1426 1424 1421 1419 1416 1415 1414 1411 1410 1408 1405 1402 1399 1402 1401 1402 1402 1402 1402 1402 1402
1459 1454 1452 1450 1447 1444 1443 1442 1442 1441 1440 1441 1440 1439 1437 1435 1433 1429 1427 1424 1421 1419 1417 1415 1412 1410 1408 1405 1403 1401 1399 1396 1393 1390 1388 1389 1392 1393 1393 1392 1390 1392 1392
1455 1452 1450 1445 1444 1442 1440 1439 1439 1438 1437 1437 1435 1433 1431 1429 1425 1421 1419 1416 1413 1409 1406 1403 1400 1398 1395 1393 1390 1387 1387 1384 1381 1378 1375 1378 1379 1382 1383 1383 1382 1383 1382
1448 1445 1442 1439 1439 1439 1437 1435 1436 1435 1433 1432 1430 1427 1424 1421 1418 1414 1411 1407 1403 1399 1393 1390 1386 1384 1381 1379 1378 1377 1376 1372 1369 1368 1367 1368 1368 1371 1374 1374 1375 1375 1374
1443 1442 1439 1437 1436 1434 1434 1433 1432 1431 1429 1427 1424 1420 1417 1413 1410 1407 1403 1398 1392 1387 1384 1381 1377 1374 1372 1369 1366 1365 1363 1362 1360 1359 1358 1359 1359 1362 1364 1365 1366 1367 1365
1443 1441 1439 1437 1436 1434 1433 1432 1429 1427 1424 1421 1417 1414 1409 1406 1403 1398 1394 1388 1383 1379 1376 1373 1368 1364 1361 1358 1355 1352 1350 1348 1349 1349 1348 1349 1350 1352 1354 1355 1357 1357 1358
1441 1440 1438 1438 1437 1434 1431 1428 1425 1422 1418 1415 1411 1407 1403 1399 1395 1390 1385 1379 1375 1371 1368 1364 1360 1355 1352 1349 1345 1342 1339 1336 1337 1337 1337 1339 1341 1342 1344 1346 1347 1349 1347
1439 1439 1438 1436 1434 1429 1427 1424 1421 1417 1413 1409 1405 1402 1398 1392 1388 1383 1379 1374 1369 1364 1359 1354 1350 1346 1342 1338 1335 1331 1328 1326 1327 1327 1327 1328 1330 1332 1334 1336 1338 1338 1340
1440 1439 1437 1433 1430 1426 1423 1420 1416 1412 1407 1403 1400 1396 1392 1387 1381 1377 1373 1369 1364 1358 1352 1346 1342 1338 1333 1329 1325 1322 1319 1319 1317 1317 1317 1317 1319 1321 1323 1325 1327 1329 1331
1437 1435 1433 1430 1426 1422 1419 1415 1411 1407 1403 1399 1394 1389 1386 1381 1377 1372 1367 1364 1359 1353 1347 1341 1335 1330 1325 1320 1317 1314 1312 1310 1309 1308 1307 1307 1309 1311 1313 1316 1318 1320 1322
1435 1432 1429 1426 1422 1418 1414 1410 1407 1404 1399 1395 1390 1385 1380 1376 1371 1367 1363 1358 1354 1349 1343 1337 1330 1324 1317 1313 1309 1306 1305 1303 1301 1299 1298 1298 1299 1303 1306 1309 1311 1313 1315
1432 1429 1425 1421 1418 1414 1411 1408 1404 1400 1396 1391 1386 1382 1377 1372 1368 1363 1358 1354 1350 1345 1340 1334 1327 1320 1314 1310 1304 1302 1300 1298 1295 1291 1290 1291 1293 1296 1298 1302 1305 1307 1308
1428 1425 1421 1418 1414 1412 1408 1404 1401 1398 1394 1388 1384 1380 1375 1369 1365 1361 1356 1351 1347 1343 1338 1332 1324 1318 1313 1308 1304 1301 1299 1296 1292 1287 1286 1288 1289 1291 1293 1296 1299 1301 1302
1425 1421 1418 1415 1412 1409 1405 1402 1400 1395 1391 1387 1383 1378 1373 1368 1363 1357 1353 1349 1345 1341 1336 1330 1325 1320 1315 1310 1306 1302 1299 1296 1293 1291 1289 1288 1289 1290 1291 1293 1295 1296 1297
1422 1418 1415 1413 1410 1406 1403 1399 1394 1391 1388 1384 1380 1375 1370 1366 1360 1355 1351 1347 1344 1340 1335 1331 1327 1322 1318 1313 1309 1305 1301 1298 1294 1292 1291 1290 1290 1290 1290 1290 1292 1292 1293
1419 1415 1412 1410 1408 1404 1401 1397 1393 1388 1383 1380 1377 1373 1368 1363 1359 1354 1350 1347 1344 1340 1336 1332 1329 1325 1320 1315 1311 1307 1303 1300 1296 1293 1292 1292 1291 1291 1291 1290 1291 1292 1293
1416 1413 1410 1408 1405 1402 1398 1395 1391 1387 1383 1379 1375 1372 1367 1363 1358 1354 1350 1347 1344 1340 1338 1334 1331 1327 1322 1318 1314 1310 1306 1302 1300 1298 1296 1295 1294 1293 1292 1292 1293 1293 1294
1414 1411 1408 1405 1402 1399 1396 1392 1389 1385 1381 1378 1374 1370 1366 1362 1358 1354 1351 1348 1345 1342 1339 1336 1333 1329 1326 1322 1317 1313 1309 1305 1302 1300 1299 1297 1296 1295 1294 1294 1293 1294 1295
1412 1409 1406 1403 1399 1397 1393 1390 1387 1384 1380 1377 1373 1370 1366 1363 1359 1356 1353 1350 1346 1343 1341 1338 1335 1332 1328 1325 1321 1317 1313 1309 1306 1304 1302 1300 1298 1297 1296 1296 1296 1296 1296
1410 1407 1404 1401 1397 1394 1391 1388 1386 1383 1379 1376 1372 1369 1366 1363 1360 1357 1354 1351 1349 1346 1343 1340 1337 1334 1330 1327 1324 1321 1317 1314 1310 1308 1305 1303 1301 1300 1299 1299 1299 1299 1299
1408 1405 1402 1399 1396 1393 1390 1387 1384 1381 1378 1375 1372 1369 1366 1363 1360 1357 1355 1352 1350 1347 1345 1342 1340 1337 1333 1330 1327 1324 1321 1317 1315 1313 1310 1307 1304 1303 1302 1302 1302 1302 1302
1405 1402 1400 1397 1394 1391 1388 1385 1383 1380 1377 1375 1372 1369 1366 1363 1361 1358 1356 1353 1351 1349 1346 1344 1341 1338 1335 1333 1330 1327 1324 1322 1319 1316 1314 1312 1309 1307 1306 1305 1305 1305 1305
1402 1400 1397 1394 1392 1389 1386 1384 1381 1379 1376 1374 1371 1369 1366 1364 1362 1359 1357 1355 1353 1351 1348 1345 1343 1340 1337 1335 1332 1330 1327 1325 1323 1320 1318 1316 1314 1312 1311 1310 1310 1309 1309
1399 1397 1395 1392 1390 1388 1385 1382 1380 1378 1376 1374 1371 1369 1367 1365 1363 1361 1359 1357 1355 1352 1350 1348 1345 1342 1340 1337 1335 1332 1330 1328 1326 1324 1322 1320 1318 1316 1315 1314 1314 1314 1313
Wind_Speed
29 29 30 29 29 27 20 19 18 19 16 22 22 19 17 12 13 18 24 27 30 33 34 36 38 37 37 36 35 36 36 35 40 35 33 32 31 30 31 31 32 37 36
32 35 29 24 22 16 13 12 13 15 18 13 13 12 13 16 19 23 28 30 33 35 36 35 36 34 35 36 36 36 37 38 39 40 35 33 30 27 26 27 27 29 31
33 29 26 21 15 13 13 13 14 13 10 11 12 16 18 21 27 29 30 33 33 35 35 35 36 36 38 38 37 37 38 39 40 40 38 35 36 35 35 36 37 33 33
34 25 14 11 11 11 11 10 10 9 7 13 16 20 24 27 29 32 32 33 36 33 34 34 37 40 42 44 44 44 44 45 48 44 42 37 34 33 32 32 33 34 36
31 25 19 16 15 12 9 9 10 17 16 15 22 25 26 29 30 32 34 34 34 38 40 43 45 46 47 47 46 47 44 45 46 43 42 34 35 32 30 30 33 31 32
29 21 21 18 16 17 15 13 12 12 13 19 24 26 28 32 32 29 30 33 38 43 44 41 36 32 31 30 31 32 33 35 38 37 36 34 34 31 31 32 33 30 28
14 14 15 13 12 12 7 4 8 13 19 24 26 29 32 28 29 31 35 34 37 35 34 33 32 32 32 33 35 35 33 33 35 35 36 36 36 33 31 31 31 34 37
9 8 7 6 7 4 6 10 17 21 24 27 30 29 30 32 32 31 34 35 33 31 30 32 35 36 36 35 35 35 36 36 34 34 35 34 32 33 35 33 31 30 30
9 8 6 3 8 13 19 20 21 23 27 29 28 31 29 29 32 34 32 28 28 30 33 32 31 32 32 32 32 34 37 39 36 34 32 32 30 28 28 27 30 30 34
5 8 10 12 18 17 19 21 23 25 25 28 27 25 29 33 29 25 23 23 28 29 30 29 30 30 28 28 29 30 33 34 34 33 32 32 28 27 28 33 34 34 32
9 14 16 16 18 19 21 21 21 25 25 24 26 28 28 23 24 21 21 21 24 28 30 32 31 27 27 27 26 26 29 29 31 31 31 30 28 27 26 27 32 34 34
13 14 16 18 20 20 20 21 22 21 22 25 28 28 24 23 22 24 19 20 21 24 27 28 28 27 28 25 24 22 23 24 28 31 31 31 29 27 26 25 24 27 30
15 17 21 21 20 20 22 20 19 21 22 25 24 26 26 26 29 21 20 21 20 21 23 23 22 24 21 20 20 19 21 23 26 29 30 29 30 30 24 20 22 23 23
19 22 24 21 21 19 17 18 19 19 19 20 25 25 25 29 26 21 25 23 19 16 18 22 20 19 13 14 12 9 8 12 18 23 22 22 24 23 24 26 23 21 21
21 22 21 19 17 15 18 16 15 15 16 21 21 21 25 28 22 22 24 18 16 17 19 19 23 20 19 19 14 10 10 12 15 7 7 11 12 13 17 18 21 20 24
20 21 17 15 14 18 18 16 13 16 17 18 15 19 23 17 19 22 18 13 14 13 13 18 23 21 20 20 19 17 14 13 12 10 6 4 1 4 8 13 17 22 21
21 18 15 14 15 19 18 18 21 20 18 16 16 18 18 15 18 17 13 10 9 10 12 16 18 20 20 20 18 17 17 14 11 5 5 4 5 7 10 13 15 16 17
20 17 16 13 16 17 17 18 19 20 21 19 17 19 17 14 14 13 9 7 6 10 13 15 17 17 17 18 18 18 16 15 15 10 5 6 7 7 6 3 4 7 8
18 17 15 14 16 16 17 17 18 16 18 18 17 17 17 14 12 11 10 8 10 12 13 14 15 17 18 17 17 18 16 15 13 12 7 3 3 4 3 2 2 4 5
16 16 13 17 18 15 15 18 15 16 16 17 16 18 17 15 14 14 12 12 10 10 12 13 14 15 17 19 19 19 20 19 15 12 10 8 6 5 4 3 2 4 4
13 12 12 17 15 13 16 14 15 14 16 16 14 16 15 13 12 12 13 12 12 12 11 11 12 13 15 16 17 19 21 21 19 15 12 11 9 4 4 4 3 2 1
13 12 13 17 15 14 13 14 13 14 15 14 14 14 13 11 10 11 10 10 10 11 11 11 11 13 14 16 17 17 18 19 20 18 14 11 10 8 6 4 4 3 3
14 15 15 15 13 13 13 14 13 13 14 13 14 14 13 11 10 9 9 9 8 8 9 8 9 10 12 13 14 15 17 18 17 16 16 14 12 10 8 6 5 4 4
13 14 16 14 14 13 14 15 14 13 13 12 13 14 12 11 9 9 9 9 10 10 8 8 8 9 10 10 12 13 14 15 15 15 14 14 13 12 11 9 9 8 6
12 10 12 13 12 13 14 14 13 13 12 11 13 12 10 10 9 8 8 10 10 9 10 10 10 10 10 11 11 12 13 13 14 14 13 11 10 11 11 11 11 8 7
7 10 13 12 12 12 14 13 12 11 11 12 12 11 9 8 8 10 9 8 9 10 11 11 12 12 11 12 13 13 12 12 13 14 14 13 10 8 7 7 7 8 8
Wind_Direction
322 319 316 304 302 298 281 254 230 215 226 257 296 315 314 300 305 299 293 289 289 290 290 289 288 287 285 285 284 283 282 281 282 284 283 284 283 282 279 277 272 263 261
328 327 312 294 280 262 248 243 249 257 267 301 325 319 315 307 296 291 292 294 293 291 291 290 289 291 289 288 287 284 281 282 282 282 283 284 282 280 277 276 273 272 275
325 326 307 282 262 264 265 258 257 266 285 306 316 320 310 296 296 298 296 297 295 294 292 288 286 286 286 285 283 280 279 279 278 277 278 278 278 279 278 275 271 272 269
333 322 276 260 258 243 227 235 256 270 293 318 315 304 299 297 297 298 298 295 295 291 288 285 283 282 282 282 281 280 280 280 280 279 278 277 275 275 274 275 276 275 268
320 309 277 263 233 216 224 237 260 291 307 311 299 299 295 299 301 298 299 297 292 289 287 285 284 283 283 282 282 282 281 279 277 276 274 276 272 269 265 268 269 271 270
316 290 273 248 235 247 269 332 347 320 298 288 295 301 302 302 302 301 297 293 292 292 292 293 294 294 292 288 282 279 277 276 275 271 271 270 270 267 266 263 264 262 268
316 308 294 299 332 7 353 303 283 290 298 302 303 304 306 306 304 300 299 300 300 297 296 297 297 293 291 288 286 281 278 276 271 274 271 267 268 266 266 263 258 256 255
351 354 341 329 316 303 313 303 300 303 305 305 308 309 306 305 306 306 305 303 300 296 295 296 297 297 295 295 292 288 278 283 271 272 272 276 275 267 262 264 266 265 261
317 295 293 312 314 312 305 306 308 307 308 309 309 308 311 311 310 309 308 304 303 301 300 301 300 300 300 296 287 278 277 277 277 278 278 277 273 268 263 263 258 258 257
339 311 319 310 304 310 313 310 310 310 310 309 310 313 312 311 312 313 310 311 307 309 312 310 311 309 305 302 293 281 277 275 279 282 279 278 268 265 254 251 257 257 254
334 311 308 315 315 313 312 312 314 312 312 312 314 316 320 323 320 321 319 311 314 318 315 315 315 315 308 305 296 284 272 274 276 274 275 276 267 264 259 251 245 248 251
310 319 320 318 317 317 316 317 316 315 319 318 319 324 329 329 331 332 326 323 322 322 315 316 316 313 309 301 293 288 283 277 272 270 272 269 261 262 257 257 255 250 252
316 325 325 322 319 316 317 318 320 323 320 321 329 330 332 334 336 334 330 332 332 325 327 327 323 319 314 309 305 289 280 279 276 268 265 267 264 261 263 260 256 260 265
322 323 322 320 317 319 319 322 323 323 325 331 333 332 331 328 333 337 334 331 335 327 338 351 342 340 341 340 336 335 330 320 303 284 273 268 265 259 258 255 254 257 259
318 320 320 318 321 328 331 326 327 328 329 331 329 326 325 328 336 327 324 330 321 322 329 350 1 6 13 16 20 10 350 354 359 335 278 271 265 255 248 258 248 260 262
324 325 324 323 327 338 334 324 329 329 331 329 323 319 326 328 321 320 328 321 317 328 355 9 17 15 19 17 18 22 16 5 3 25 50 71 185 246 247 245 248 252 264
328 326 327 331 328 333 332 332 333 334 333 332 331 332 337 333 326 330 333 328 333 347 18 20 20 25 23 22 18 18 23 17 10 13 2 4 327 292 282 253 258 261 255
327 320 320 314 318 330 331 335 332 331 337 338 341 345 347 343 342 344 343 333 11 25 26 23 23 24 32 31 25 21 20 24 29 16 27 33 58 29 27 356 302 261 230
333 326 329 325 326 326 325 327 330 333 336 338 339 348 354 356 358 6 11 16 26 29 29 30 31 29 31 31 32 32 26 25 25 33 50 63 23 27 6 270 251 239 243
324 326 326 328 322 321 324 331 330 337 339 343 343 349 353 356 7 18 24 28 29 33 35 33 34 36 32 34 35 39 38 36 36 38 34 25 14 350 338 346 300 294 250
327 329 320 330 333 325 330 331 338 337 342 345 342 346 349 356 6 14 23 27 33 36 42 39 37 38 38 34 32 35 40 39 38 40 41 38 33 36 24 9 12 28 346
343 331 325 327 332 331 330 331 337 337 341 344 345 344 347 352 2 11 17 25 32 35 38 41 40 37 36 36 34 32 34 38 37 35 34 36 40 45 48 48 51 66 92
327 330 332 332 328 330 330 334 330 334 340 343 349 347 352 359 2 6 10 15 21 33 36 34 37 39 39 38 37 33 32 30 28 31 36 40 47 50 53 64 68 86 106
312 321 320 332 331 329 328 331 333 335 337 341 347 349 351 1 6 9 15 19 28 26 24 29 33 34 34 33 34 34 34 33 31 32 33 42 54 58 62 69 75 79 82
307 313 326 330 332 335 337 336 331 332 337 337 346 348 348 355 5 12 26 33 27 31 36 38 40 37 36 37 36 35 34 36 42 40 36 38 52 60 63 68 70 78 82
308 318 329 336 335 332 337 333 333 335 339 338 345 348 350 353 10 26 24 29 35 38 39 41 43 42 43 44 41 40 39 38 38 40 39 44 51 60 61 65 66 66 71